Terminal Aerodrome Forecast
Issued by NWS Denver/Boulder, CO

Home | Current Version | Previous Version | Text Only | Print | Product List | Glossary On
Versions: 1 2 3 4 5 6 7 8 9 10 11 12 13 14 15 16 17 18 19 20 21 22 23 24 25 26 27 28 29 30 31 32 33 34 35 36 37 38 39 40 41 42 43 44 45 46 47 48 49 50
000
FTUS45 KBOU 030538
TAFDEN
TAF
KDEN 030538Z 0306/0412 23008KT P6SM BKN120
     FM030900 28008KT P6SM SCT080 SCT120
     FM031400 35015KT P6SM FEW090 SCT140
     FM032000 02013KT P6SM FEW140 SCT220
     FM040200 14006KT P6SM SCT220
     FM040500 22009KT P6SM FEW220=

USA.gov is the U.S. government's official web portal to all federal, state and local government web resources and services.